Weather History for Hat Yai, Thailand

Change the Weather History Date:

Monday, September 24, 2012

  Actual Average Record
Temperature  
Mean Temperature 83 °F -  
Max Temperature 91 °F 85 °F 93 °F (1996)
Min Temperature 75 °F 74 °F 73 °F (2000)
Cooling Degree Days 18    
Growing Degree Days 33 (Base 50)    
Moisture  
Dew Point 73 °F    
Average Humidity 78    
Maximum Humidity 89    
Minimum Humidity 57    
Precipitation  
Precipitation 0.01 in - - ()
Sea Level Pressure  
Sea Level Pressure 29.77 in    
Wind  
Wind Speed 3 mph ()    
Max Wind Speed 23 mph    
Max Gust Speed -    
Visibility 6.2 miles    
Events Rain    
Averages and records for this station are not official NWS values.
T = Trace of Precipitation, MM = Missing Value Source: Averaged Metar Reports

Daily Weather History Graph

Daily Weather History Graph

Search for Another Location

Airport:

Trip Planner

Search our weather history database for the weather conditions in past years. The results will help you decide how hot, cold, wet, or windy it might be!

Date:

Astronomy

Sep. 24, 2012 Rise Set
Actual Time 6:07 AM ICT 6:13 PM ICT
Civil Twilight 5:46 AM ICT 6:34 PM ICT
Nautical Twilight 5:22 AM ICT 6:58 PM ICT
Astronomical Twilight 4:58 AM ICT 7:22 PM ICT
Moon 1:39 PM ICT (9/24) 12:51 AM ICT (9/24)
Length of Visible Light 12h 47m
Length of Day
12h 05m
Waxing Gibbous, 65% of the Moon is Illuminated
Sep 24
Waxing Gibbous
Sep 30
Full
Oct 8
Last Quarter
Oct 15
New
Oct 22
First Quarter

Hourly Weather History & Observations

Time (ICT) Temp. Heat Index Dew Point Humidity Pressure Visibility Wind Dir Wind Speed Gust Speed Precip Events Conditions
12:00 AM 78.8 °F - 71.6 °F 78% 29.83 in 6.2 mi Calm Calm - N/A   Mostly Cloudy
12:30 AM 77.0 °F - 71.6 °F 83% 29.80 in 6.2 mi ESE 3.5 mph - N/A   Mostly Cloudy
1:00 AM 77 °F - 71 °F 75% 29.81 in 6 mi SE 3.5 mph - -   Scattered Clouds
1:00 AM 77.0 °F - 69.8 °F 78% 29.80 in 6.2 mi SSE 3.5 mph - N/A   Mostly Cloudy
1:30 AM 77.0 °F - 71.6 °F 83% 29.80 in 6.2 mi Calm Calm - N/A   Mostly Cloudy
2:00 AM 77.0 °F - 71.6 °F 83% 29.77 in 6.2 mi Calm Calm - N/A   Mostly Cloudy
2:30 AM 77.0 °F - 71.6 °F 83% 29.77 in 6.2 mi Calm Calm - N/A   Mostly Cloudy
3:00 AM 77.0 °F - 71.6 °F 83% 29.77 in 6.2 mi Calm Calm - N/A   Mostly Cloudy
3:30 AM 75.2 °F - 71.6 °F 89% 29.74 in 6.2 mi Calm Calm - N/A   Mostly Cloudy
4:00 AM 75.2 °F - 71.6 °F 89% 29.77 in 6.2 mi Calm Calm - N/A   Mostly Cloudy
4:30 AM 75.2 °F - 71.6 °F 89% 29.77 in 6.2 mi Calm Calm - N/A   Mostly Cloudy
5:00 AM 75.2 °F - 71.6 °F 89% 29.77 in 6.2 mi Calm Calm - N/A   Mostly Cloudy
5:30 AM 75.2 °F - 71.6 °F 89% 29.77 in 6.2 mi Calm Calm - N/A   Mostly Cloudy
6:00 AM 75.2 °F - 71.6 °F 89% 29.77 in 6.2 mi Calm Calm - N/A   Mostly Cloudy
6:30 AM 75.2 °F - 71.6 °F 89% 29.77 in 6.2 mi SSE 3.5 mph - N/A   Mostly Cloudy
7:00 AM 77 °F - 73 °F 83% 29.81 in 6 mi Calm Calm - -   Scattered Clouds
7:00 AM 77.0 °F - 73.4 °F 89% 29.80 in 6.2 mi Calm Calm - N/A   Mostly Cloudy
7:30 AM 80.6 °F 87.1 °F 77.0 °F 89% 29.80 in 6.2 mi SE 3.5 mph - N/A   Mostly Cloudy
8:00 AM 82.4 °F 90.9 °F 77.0 °F 84% 29.80 in 6.2 mi Calm Calm - N/A   Mostly Cloudy
8:30 AM 84.2 °F 96.1 °F 78.8 °F 84% 29.83 in 6.2 mi SW 4.6 mph - N/A   Mostly Cloudy
9:00 AM 86.0 °F 99.3 °F 78.8 °F 79% 29.83 in 6.2 mi Calm Calm - N/A   Mostly Cloudy
9:30 AM 86.0 °F 99.3 °F 78.8 °F 79% 29.83 in 6.2 mi WNW 6.9 mph - N/A   Mostly Cloudy
10:00 AM 86.0 °F 96.9 °F 77.0 °F 74% 29.83 in 6.2 mi West 6.9 mph - N/A   Mostly Cloudy
10:30 AM 89.6 °F 104.7 °F 78.8 °F 70% 29.80 in 6.2 mi SSW 4.6 mph - N/A   Mostly Cloudy
11:00 AM 89.6 °F 104.7 °F 78.8 °F 70% 29.80 in 6.2 mi WSW 8.1 mph - N/A   Mostly Cloudy
11:30 AM 89.6 °F 104.7 °F 78.8 °F 70% 29.77 in 6.2 mi West 5.8 mph - N/A   Mostly Cloudy
12:00 PM 91.4 °F 107.2 °F 78.8 °F 66% 29.77 in 6.2 mi SW 11.5 mph - N/A   Mostly Cloudy
12:30 PM 89.6 °F 99.8 °F 75.2 °F 62% 29.77 in 6.2 mi WSW 11.5 mph - N/A   Mostly Cloudy
1:00 PM 85 °F - 72 °F 57% 29.78 in 6 mi WSW 23.0 mph - - Rain Light Rain
1:00 PM 78.8 °F - 66.2 °F 65% 29.77 in 6.2 mi WSW 23.0 mph - N/A Rain Light Rain
1:30 PM 80.6 °F 84.6 °F 71.6 °F 74% 29.74 in 6.2 mi SSW 3.5 mph - N/A   Mostly Cloudy
2:00 PM 82.4 °F 88.2 °F 73.4 °F 74% 29.71 in 6.2 mi Calm Calm - N/A   Mostly Cloudy
2:30 PM 84.2 °F 90.9 °F 73.4 °F 70% 29.71 in 6.2 mi Calm Calm - N/A   Mostly Cloudy
3:00 PM 84.2 °F 90.9 °F 73.4 °F 70% 29.71 in 6.2 mi West 5.8 mph - N/A   Mostly Cloudy
3:30 PM 82.4 °F 88.2 °F 73.4 °F 74% 29.71 in 6.2 mi WSW 6.9 mph - N/A   Mostly Cloudy
4:00 PM 82.4 °F 88.2 °F 73.4 °F 74% 29.71 in 6.2 mi WSW 6.9 mph - N/A   Mostly Cloudy
4:30 PM 84.2 °F 90.9 °F 73.4 °F 70% 29.71 in 6.2 mi WSW 5.8 mph - N/A   Mostly Cloudy
5:00 PM 82.4 °F 88.2 °F 73.4 °F 74% 29.71 in 6.2 mi SW 8.1 mph - N/A   Mostly Cloudy
5:30 PM 82.4 °F 88.2 °F 73.4 °F 74% 29.71 in 6.2 mi SW 5.8 mph - N/A   Mostly Cloudy
6:00 PM 80.6 °F 84.6 °F 71.6 °F 74% 29.74 in 6.2 mi South 3.5 mph - N/A   Mostly Cloudy
6:30 PM 80.6 °F 84.6 °F 71.6 °F 74% 29.74 in 6.2 mi WSW 3.5 mph - N/A   Mostly Cloudy
7:00 PM 82 °F - 72 °F 66% 29.77 in 6 mi Calm Calm - -   Partly Cloudy
7:00 PM 82.4 °F 88.2 °F 73.4 °F 74% 29.74 in 6.2 mi Calm Calm - N/A   Mostly Cloudy
7:30 PM 78.8 °F - 69.8 °F 74% 29.77 in 6.2 mi West 11.5 mph - N/A Rain Light Rain
8:00 PM 78.8 °F - 69.8 °F 74% 29.77 in 6.2 mi West 3.5 mph - N/A   Mostly Cloudy
8:30 PM 77.0 °F - 69.8 °F 78% 29.77 in 6.2 mi SSW 3.5 mph - N/A   Mostly Cloudy
9:00 PM 77.0 °F - 69.8 °F 78% 29.80 in 6.2 mi West 3.5 mph - N/A   Mostly Cloudy
9:30 PM 77.0 °F - 69.8 °F 78% 29.80 in 6.2 mi SE 3.5 mph - N/A   Mostly Cloudy
10:00 PM 77.0 °F - 69.8 °F 78% 29.80 in 6.2 mi SSE 2.3 mph - N/A   Mostly Cloudy
10:30 PM 77.0 °F - 71.6 °F 83% 29.80 in 6.2 mi SSE 3.5 mph - N/A   Mostly Cloudy
11:00 PM 77.0 °F - 71.6 °F 83% 29.80 in 6.2 mi SE 3.5 mph - N/A   Mostly Cloudy
11:30 PM 77.0 °F - 71.6 °F 83% 29.80 in 6.2 mi SE 2.3 mph - N/A   Mostly Cloudy